This is the latest recevied weather packets stored in our database for station/object W6DSP. If no packets are shown the sender has not sent any weather packets the latest 10 day(s).
| Time | Temp. | Humidity | Pressure | Rain* | Wind** | Luminosity | Snow |
|---|---|---|---|---|---|---|---|
| 1777693921 | 3.33° C | 80% | 1019.7 hPa | 0 mm | - | - | - |
| 1777693199 | 3.89° C | 78% | 1019.6 hPa | 0 mm | - | - | - |
| 1777692496 | 3.89° C | 80% | 1019.5 hPa | 0 mm | - | - | - |
| 1777691794 | 3.33° C | 80% | 1019.4 hPa | 0 mm | - | - | - |
| 1777691082 | 3.33° C | 79% | 1019.2 hPa | 0 mm | - | - | - |
| 1777690385 | 3.33° C | 78% | 1019.1 hPa | 0 mm | - | - | - |
| 1777689652 | 3.89° C | 77% | 1019 hPa | 0 mm | - | - | - |
| 1777688935 | 4.44° C | 73% | 1018.9 hPa | 0 mm | - | - | - |
| 1777688182 | 5° C | 74% | 1018.8 hPa | 0 mm | - | - | - |
| 1777687439 | 5° C | 70% | 1018.5 hPa | 0 mm | - | - | - |
| 1777686734 | 5° C | 71% | 1018.6 hPa | 0 mm | - | - | - |
| 1777685976 | 5° C | 73% | 1018.4 hPa | 0 mm | - | - | - |
| 1777685231 | 5.56° C | 71% | 1018.1 hPa | 0 mm | - | - | - |
| 1777684492 | 5.56° C | 69% | 1018 hPa | 0 mm | - | - | - |
| 1777683778 | 5.56° C | 71% | 1017.9 hPa | 0 mm | - | - | - |
| 1777683022 | 6.67° C | 66% | 1017.7 hPa | 0 mm | - | - | - |
| 1777682313 | 7.22° C | 58% | 1017.6 hPa | 0 mm | - | - | - |
| 1777681569 | 7.78° C | 57% | 1017.6 hPa | 0 mm | - | - | - |
| 1777680833 | 8.33° C | 54% | 1017.5 hPa | 0 mm | - | - | - |
| 1777680122 | 8.33° C | 53% | 1017.6 hPa | 0 mm | - | - | - |
| 1777679419 | 8.89° C | 54% | 1017.5 hPa | 0 mm | - | - | - |
| 1777678668 | 8.89° C | 53% | 1017.4 hPa | 0 mm | - | - | - |
| 1777677940 | 9.44° C | 51% | 1017.3 hPa | 0 mm | - | - | - |
| 1777677208 | 9.44° C | 50% | 1017.2 hPa | 0 mm | - | - | - |
| 1777676460 | 10° C | 50% | 1017.2 hPa | 0 mm | - | - | - |
* Rain latest hour (hover to see other rain measurements)
** Current wind speed in m/s (hover to see current wind gust speed)